Weather Roundup
Issued by NWS Chicago, IL

Home | Current Version | Previous Version | Graphics & Text | Print | Product List | Glossary On
Versions: 1 2 3 4 5 6 7 8 9 10 11 12 13 14 15 16 17 18 19 20 21 22 23 24 25 26 27 28 29 30 31 32 33 34 35 36 37 38 39 40 41 42 43 44 45 46 47 48 49 50
624
NZUS59 KLOT 210503
HRRLOT

CHICAGO AREA WEATHER ROUNDUP
NATIONAL WEATHER SERVICE CHICAGO/ROMEOVILLE IL
1200 AM CDT THU SEP 21 2017

NOTE: "FAIR" INDICATES FEW OR NO CLOUDS BELOW 12,000 FEET WITH NO
SIGNIFICANT WEATHER AND/OR OBSTRUCTIONS TO VISIBILITY.

* THESE STATIONS ARE NOT UNDER NWS QUALITY CONTROL. THEY ALSO MAY NOT
  REPORT WEATHER SUCH AS PRECIPITATION OR FOG.

ILZ005-006-012>014-019>023-210600-
NORTHEAST ILLINOIS

CITY           SKY/WX    TMP DP  RH WIND       PRES   REMARKS
OHARE          CLOUDY    80  67  64 S9        29.92F HX  82
MIDWAY         CLOUDY    80  68  66 S7        29.93S HX  83
AURORA         CLOUDY    76  69  79 SW6       29.94S
LANSING*       CLOUDY    72  69  90 S6        29.96S
JOLIET*        CLOUDY    76  70  82 S3        29.94F
WAUKEGAN       CLOUDY    76  69  79 SW5       29.91F
DUPAGE AIRPORT CLOUDY    77  69  76 S8        29.93S
WHEELING       CLOUDY    82  69  64 S9        29.92F HX  85
MORRIS*        CLOUDY    72  68  87 SE7       29.93S
LEWIS AIRPORT* CLOUDY    73  68  84 S8        29.94F
NORTHERLY ISL    N/A     81  65  58 S7          N/A  HX  83
$$

WIZ051-052-058>065-066-070>072-210600-
SOUTHEAST WISCONSIN

CITY           SKY/WX    TMP DP  RH WIND       PRES   REMARKS
MILWAUKEE      CLOUDY    74  66  76 NE15G24   29.95R
KENOSHA*       CLOUDY    78  67  68 CALM      29.93R HX  80
RACINE*        CLOUDY    72  69  90 N6        29.95R
$$

INZ001>003-010>013-019-020-210600-
NORTHWEST INDIANA

CITY           SKY/WX    TMP DP  RH WIND       PRES   REMARKS
GARY*          CLOUDY    78  68  69 S3        29.96S HX  81
MICHIGAN CITY* NOT AVBL
RENSSELAER*    NOT AVBL
VALPARAISO     CLEAR     75  68  78 CALM      29.98R
$$

LMZ740>746-210600-
SOUTHERN LAKE MICHIGAN

STATION/POSITION TIME  SKY/WX   TEMP WIND        PRES    VSBY
                                AIR  DIR/SP/G
                 (UTC)          (F)  (DEG/KT/KT) (MB)    (MI)
HARRISON CRIB    0440            82  200/ 13/ 13   N/A
BURNHAM HARBOR   NOT AVBL
CALUMET HARBOR   0430            80  210/  5/  8 1013.4R
BURNS HARBOR     0440            77  190/  7/ 10 1014.6R
MICHIGAN CITY    0440            79  170/ 13/ 17   N/A
$$

ABBREVIATIONS USED IN REMARKS
   TC - TEMPERATURE IN CELSIUS
  WCI - WIND CHILL INDEX
   HX - HEAT INDEX
  VSB - VISIBILITY
$$




USA.gov is the U.S. government's official web portal to all federal, state and local government web resources and services.